When you browse on this site, cookies collect data to enhance your experience and personalize the content and advertising you see.
Visit our Privacy Policy to learn more. By continuing to use the site, you agree to this use of cookies and data.
  • In Portugal
  • List of Countries
  • For 7 days
  • Water Temperature
  • Weather Map
  • Weather Widgets
  • user-avatar
    Login

    Hourly Weather Koszary

    Today, 27 January, Monday

    Time Temperature Precipitation Wind Pressure Humidity
    00:00 0°C° 0 mm 1 mps 731 mmHg 73%
    01:00 0°C° 0 mm 1 mps 731 mmHg 71%
    02:00 0°C° 0 mm 1 mps 730 mmHg 69%
    03:00 0°C° 0 mm 1 mps 730 mmHg 67%
    04:00 0°C° 0 mm 1 mps 730 mmHg 66%
    05:00 0°C° 0 mm 1 mps 730 mmHg 68%
    06:00 0°C° 0 mm 1 mps 730 mmHg 69%
    07:00 0°C° 0 mm 1 mps 730 mmHg 61%
    08:00 +1°C° 0 mm 1 mps 730 mmHg 60%
    09:00 +2°C° 0 mm 1 mps 730 mmHg 60%
    10:00 +4°C° 0 mm 1 mps 730 mmHg 59%
    11:00 +4°C° 0 mm 1 mps 729 mmHg 59%
    12:00 +4°C° 0 mm 0 mps 729 mmHg 59%
    13:00 +6°C° 0 mm 1 mps 729 mmHg 57%
    14:00 +5°C° 0 mm 1 mps 729 mmHg 63%
    15:00 +4°C° 0 mm 1 mps 729 mmHg 68%
    16:00 +2°C° 0 mm 0 mps 728 mmHg 74%
    17:00 +2°C° 0 mm 1 mps 728 mmHg 76%
    18:00 +2°C° 0 mm 1 mps 728 mmHg 79%
    19:00 +2°C° 0 mm 1 mps 728 mmHg 81%
    20:00 +1°C° 0 mm 1 mps 728 mmHg 82%
    21:00 +1°C° 0 mm 1 mps 727 mmHg 83%
    22:00 +1°C° 0 mm 1 mps 727 mmHg 84%
    23:00 +1°C° 0 mm 1 mps 727 mmHg 84%

    Tomorrow, 28 January, Tuesday

    Time Temperature Precipitation Wind Pressure Humidity
    00:00 -1°C° 0 mm 2 mps 726 mmHg 84%
    01:00 -1°C° 0 mm 2 mps 726 mmHg 84%
    02:00 -1°C° 0 mm 2 mps 725 mmHg 84%
    03:00 -1°C° 0 mm 2 mps 724 mmHg 84%
    04:00 -1°C° 0 mm 2 mps 724 mmHg 83%
    05:00 -1°C° 0 mm 2 mps 723 mmHg 83%
    06:00 -1°C° 0 mm 2 mps 723 mmHg 83%
    07:00 -1°C° 0 mm 2 mps 723 mmHg 84%
    08:00 +1°C° 0 mm 2 mps 722 mmHg 80%
    09:00 +1°C° 0 mm 3 mps 722 mmHg 77%
    10:00 +2°C° 0 mm 3 mps 721 mmHg 74%
    11:00 +2°C° 0.1 mm 3 mps 721 mmHg 76%
    12:00 +3°C° 0.1 mm 2 mps 720 mmHg 78%
    13:00 +4°C° 0.1 mm 2 mps 720 mmHg 79%
    14:00 +3°C° 0.1 mm 2 mps 719 mmHg 82%
    15:00 +2°C° 0.1 mm 2 mps 718 mmHg 84%
    16:00 +2°C° 0.1 mm 2 mps 718 mmHg 86%
    17:00 +2°C° 0 mm 2 mps 718 mmHg 87%
    18:00 +1°C° 0 mm 2 mps 718 mmHg 87%
    19:00 +1°C° 0 mm 2 mps 717 mmHg 87%
    20:00 +1°C° 0.4 mm 2 mps 717 mmHg 90%
    21:00 +1°C° 0.4 mm 2 mps 717 mmHg 93%
    22:00 +1°C° 0.4 mm 2 mps 717 mmHg 96%
    23:00 +1°C° 0 mm 2 mps 717 mmHg 93%

    Day after tomorrow, 29 January, Wednesday

    Time Temperature Precipitation Wind Pressure Humidity
    00:00 0°C° 0 mm 3 mps 716 mmHg 91%
    01:00 0°C° 0 mm 3 mps 716 mmHg 89%
    02:00 0°C° 0.1 mm 3 mps 717 mmHg 86%
    03:00 -1°C° 0.1 mm 4 mps 717 mmHg 84%
    04:00 -1°C° 0.1 mm 4 mps 717 mmHg 81%
    05:00 -2°C° 0 mm 4 mps 717 mmHg 80%
    06:00 -2°C° 0 mm 4 mps 718 mmHg 80%
    07:00 -3°C° 0 mm 4 mps 718 mmHg 79%
    08:00 -2°C° 0 mm 5 mps 718 mmHg 77%
    09:00 -2°C° 0 mm 6 mps 718 mmHg 76%
    10:00 -2°C° 0 mm 7 mps 718 mmHg 74%
    11:00 -2°C° 0.3 mm 7 mps 719 mmHg 78%
    12:00 -2°C° 0.3 mm 7 mps 719 mmHg 83%
    13:00 -2°C° 0.3 mm 8 mps 719 mmHg 87%
    14:00 -2°C° 0.2 mm 8 mps 719 mmHg 87%
    15:00 -2°C° 0.2 mm 7 mps 719 mmHg 87%
    16:00 -2°C° 0.2 mm 7 mps 719 mmHg 87%
    17:00 -3°C° 0 mm 7 mps 720 mmHg 89%
    18:00 -3°C° 0 mm 6 mps 720 mmHg 90%
    19:00 -3°C° 0 mm 6 mps 721 mmHg 91%
    20:00 -3°C° 0.1 mm 6 mps 721 mmHg 92%
    21:00 -2°C° 0.1 mm 5 mps 722 mmHg 93%
    22:00 -2°C° 0.1 mm 5 mps 722 mmHg 93%
    23:00 -2°C° 0.2 mm 5 mps 723 mmHg 93%

    30 January, Thursday

    Time Temperature Precipitation Wind Pressure Humidity
    00:00 -2°C° 0.2 mm 5 mps 723 mmHg 92%
    01:00 -2°C° 0.2 mm 5 mps 724 mmHg 92%
    02:00 -2°C° 0.1 mm 5 mps 724 mmHg 92%
    03:00 -3°C° 0.1 mm 6 mps 724 mmHg 91%
    04:00 -4°C° 0.1 mm 6 mps 725 mmHg 91%
    05:00 -3°C° 0.3 mm 6 mps 725 mmHg 93%
    06:00 -3°C° 0.3 mm 6 mps 726 mmHg 94%
    07:00 -3°C° 0.3 mm 6 mps 726 mmHg 95%
    08:00 -3°C° 0.1 mm 6 mps 726 mmHg 92%
    09:00 -3°C° 0.1 mm 6 mps 727 mmHg 88%
    10:00 -2°C° 0.1 mm 6 mps 727 mmHg 85%
    11:00 -2°C° 0 mm 6 mps 727 mmHg 80%
    12:00 -1°C° 0 mm 6 mps 727 mmHg 75%
    13:00 -1°C° 0 mm 6 mps 727 mmHg 70%
    14:00 0°C° 0 mm 5 mps 727 mmHg 73%
    15:00 -1°C° 0 mm 4 mps 727 mmHg 75%
    16:00 -1°C° 0 mm 3 mps 727 mmHg 78%
    17:00 -1°C° 0 mm 3 mps 727 mmHg 79%
    18:00 -2°C° 0 mm 3 mps 727 mmHg 80%
    19:00 -2°C° 0 mm 3 mps 727 mmHg 81%
    20:00 -2°C° 0 mm 2 mps 727 mmHg 81%
    21:00 -2°C° 0 mm 2 mps 727 mmHg 81%
    22:00 -2°C° 0 mm 2 mps 727 mmHg 80%
    23:00 -2°C° 0 mm 2 mps 726 mmHg 80%

    31 January, Friday

    Time Temperature Precipitation Wind Pressure Humidity
    00:00 -1°C° 0 mm 2 mps 726 mmHg 80%
    01:00 -1°C° 0 mm 2 mps 726 mmHg 79%
    02:00 -1°C° 0 mm 2 mps 726 mmHg 79%
    03:00 -1°C° 0 mm 2 mps 725 mmHg 79%
    04:00 -1°C° 0 mm 2 mps 725 mmHg 79%
    05:00 -1°C° 0 mm 2 mps 724 mmHg 77%
    06:00 0°C° 0 mm 3 mps 724 mmHg 75%
    07:00 0°C° 0 mm 3 mps 723 mmHg 73%
    08:00 0°C° 0.5 mm 3 mps 723 mmHg 78%
    09:00 +1°C° 0.5 mm 3 mps 723 mmHg 83%
    10:00 0°C° 0.5 mm 4 mps 723 mmHg 89%
    11:00 +1°C° 0.4 mm 4 mps 722 mmHg 90%
    12:00 +3°C° 0.4 mm 4 mps 722 mmHg 90%
    13:00 +3°C° 0.4 mm 4 mps 722 mmHg 91%
    14:00 +4°C° 0.2 mm 4 mps 722 mmHg 91%
    15:00 +4°C° 0.2 mm 4 mps 722 mmHg 92%
    16:00 +4°C° 0.2 mm 4 mps 722 mmHg 92%
    17:00 +4°C° 0.1 mm 4 mps 723 mmHg 92%
    18:00 +4°C° 0.1 mm 4 mps 723 mmHg 93%
    19:00 +5°C° 0.1 mm 4 mps 724 mmHg 93%
    20:00 +4°C° 0.1 mm 4 mps 724 mmHg 93%
    21:00 +4°C° 0.1 mm 3 mps 724 mmHg 93%
    22:00 +4°C° 0.1 mm 3 mps 725 mmHg 94%
    23:00 +4°C° 0 mm 3 mps 725 mmHg 92%

    1 February, Saturday

    Time Temperature Precipitation Wind Pressure Humidity
    00:00 +4°C° 0 mm 3 mps 725 mmHg 91%
    01:00 +4°C° 0 mm 3 mps 725 mmHg 90%
    02:00 +4°C° 0 mm 3 mps 725 mmHg 90%
    03:00 +4°C° 0 mm 3 mps 725 mmHg 89%
    04:00 +4°C° 0 mm 3 mps 725 mmHg 89%
    05:00 +4°C° 0 mm 3 mps 725 mmHg 89%
    06:00 +5°C° 0 mm 2 mps 725 mmHg 89%
    07:00 +5°C° 0 mm 2 mps 725 mmHg 89%
    08:00 +5°C° 0 mm 2 mps 725 mmHg 89%
    09:00 +6°C° 0 mm 2 mps 725 mmHg 88%
    10:00 +6°C° 0 mm 2 mps 725 mmHg 88%
    11:00 +7°C° 0 mm 3 mps 725 mmHg 86%
    12:00 +8°C° 0 mm 3 mps 725 mmHg 83%
    13:00 +8°C° 0 mm 4 mps 725 mmHg 80%
    14:00 +8°C° 0 mm 3 mps 725 mmHg 83%
    15:00 +8°C° 0 mm 3 mps 724 mmHg 85%
    16:00 +7°C° 0 mm 3 mps 724 mmHg 88%
    17:00 +7°C° 0 mm 3 mps 724 mmHg 88%
    18:00 +7°C° 0 mm 3 mps 724 mmHg 88%
    19:00 +5°C° 0 mm 3 mps 724 mmHg 88%
    20:00 +7°C° 0.1 mm 3 mps 724 mmHg 87%
    21:00 +6°C° 0.1 mm 4 mps 724 mmHg 87%
    22:00 +6°C° 0.1 mm 4 mps 723 mmHg 87%
    23:00 +6°C° 0.2 mm 5 mps 724 mmHg 86%
    Show more